[[{"header":{"parameterUnit":"m.s-1","parameterCategory":1,"la1":30.2991,"la2":30.254,"lo1":-89.0895,"lo2":-89.0444,"dy":0.0017,"dx":0.0017,"nx":28,"ny":28,"refTime":"2023-07-27T03:00:00:Z","depth":0,"parameterNumber":2,"parameterNumberName":"U-component_of_WINDS"},"data":[0,0,0,0,0,0,0,0,0,0,0,0,0,0,0,0,0,0,0,0,0,0,0,0,0,0,0,0,0,0,0,0,0,0,0,0,0,0,0,0,0,0,0,0,0,0,0,0,0,0,0,0,0,0,0,0,0,0,0.5466,0.5465,0,0.5373,0.5372,0.5371,0.5225,0.5222,0.5219,0.5217,0.5128,0.5128,0.5128,0,0,0,0,0,0,0,0,0,0,0,0,0,0.5522,0.5521,0.5466,0.5465,0.5464,0.5373,0.5372,0.5371,0.5225,0.5222,0.5219,0.5216,0.5128,0.5128,0.5128,0,0,0,0,0,0,0,0,0,0,0,0,0,0.547,0.5521,0.5467,0.538,0.5372,0.5374,0.5372,0.5371,0.5226,0.5222,0.5218,0.5214,0.5128,0.5128,0.5128,0.5209,0,0,0.5129,0.5129,0,0,0,0,0,0,0,0,0.5473,0.5468,0.5394,0.5386,0.5376,0.5306,0.5359,0.5317,0.5227,0.5281,0.5217,0.5212,0.5191,0.5186,0.5177,0.5205,0.5201,0.5129,0.5129,0.5129,0.5129,0,0,0,0,0,0,0,0.5477,0.5472,0.543,0.5393,0.5382,0.5347,0.5336,0.535,0.526,0.5276,0.5265,0.5256,0.5186,0.5178,0.5174,0.52,0.5129,0.5129,0.5129,0.5129,0.5287,0.5291,0,0,0,0,0,0,0.5493,0.5476,0.5433,0.5427,0.5416,0.535,0.5336,0.5333,0.5259,0.5244,0.526,0.525,0.5179,0.5174,0.5171,0.5259,0.5129,0.5129,0.5129,0.5283,0.5288,0.5292,0,0,0,0,0,0,0.5495,0.549,0.5436,0.5448,0.5439,0.5353,0.535,0.5333,0.5325,0.5247,0.523,0.5268,0.5176,0.517,0.52,0.5254,0.5129,0.513,0.5278,0.5284,0.529,0.5438,0,0,0,0,0,0,0.5497,0.5492,0.5521,0.545,0.5438,0.5467,0.5353,0.5334,0.5325,0.5311,0.525,0.5236,0.5172,0.52,0.52,0.5252,0.513,0.5273,0.5281,0.5288,0.5428,0.5448,0.5466,0,0,0,0,0,0.5499,0.5569,0.5524,0.5519,0.5473,0.547,0.5464,0.5387,0.533,0.5359,0.5308,0.5238,0.5248,0.5204,0.5203,0.5256,0.5269,0.5279,0.5287,0.5419,0.5444,0.5465,0,0,0,0,0,0,0.5652,0.5558,0.5507,0.5555,0.5521,0.5445,0.548,0.5416,0.54,0.5388,0.5295,0.5283,0.5324,0.5292,0.5246,0.5329,0.5247,0.5257,0.5348,0.5371,0.539,0.5397,0.513,0,0,0,0,0,0.5691,0.5695,0.5613,0.5663,0.5648,0.5567,0.5563,0.5506,0.5469,0.5455,0.5406,0.5374,0.5368,0.5368,0.5359,0.5422,0.5406,0.5457,0.5476,0.5492,0.5502,0.553,0.5552,0.5322,0.5322,0.5322,0,0,0.5772,0.5721,0.573,0.5692,0.5659,0.5666,0.5557,0.5569,0.5574,0.5457,0.5481,0.5444,0.5402,0.5447,0.5465,0.5422,0.5561,0.5504,0.5517,0.5518,0.5542,0.5564,0.5583,0.5329,0.5327,0.5326,0,0,0.5924,0.5885,0.5922,0.589,0.584,0.5785,0.5794,0.5727,0.5697,0.5719,0.5631,0.5635,0.5629,0.5602,0.5588,0.5724,0.5659,0.5724,0.5824,0.5853,0.5871,0.5887,0.5935,0.5954,0.5734,0.5734,0.5734,0,0.6032,0.6037,0.595,0.5966,0.5952,0.5843,0.588,0.5854,0.5806,0.5799,0.5751,0.5739,0.5703,0.574,0.5772,0.5764,0.5772,0.5732,0.5875,0.589,0.5903,0.5948,0.5967,0.5742,0.5741,0.574,0.574,0,0.6172,0.6176,0.6212,0.6164,0.6154,0.6181,0.6098,0.6099,0.6042,0.5992,0.6015,0.5967,0.5946,0.595,0.5896,0.5978,0.5953,0.5892,0.5808,0.5935,0.5975,0.5992,0.5754,0.5751,0.5749,0.5747,0,0,0.642,0.632,0.6335,0.6311,0.6246,0.6249,0.627,0.6246,0.6248,0.6218,0.6233,0.6229,0.617,0.6154,0.6095,0.6121,0.6231,0.6055,0.6053,0.609,0.6317,0.6365,0.6386,0.6186,0.6189,0.6191,0.6321,0,0.6559,0.6588,0.6508,0.6558,0.6561,0.6456,0.6474,0.6437,0.639,0.6386,0.6335,0.6333,0.6256,0.6245,0.6265,0.6213,0.6275,0.6203,0.6201,0.6202,0.6216,0.6407,0.6458,0.6582,0.6336,0.6339,0.6341,0,0.6726,0.67,0.6749,0.6678,0.6677,0.6695,0.6665,0.6662,0.6618,0.6581,0.6561,0.6492,0.6508,0.6426,0.6447,0.64,0.6394,0.6368,0.6371,0.6369,0.628,0.6411,0.662,0.6639,0.6365,0.6363,0.6361,0,0.6901,0.6879,0.6905,0.6887,0.6806,0.6821,0.6788,0.6739,0.6729,0.6703,0.6695,0.6673,0.6662,0.6646,0.6573,0.652,0.6602,0.6515,0.6573,0.6576,0.6597,0.6597,0.6809,0.6593,0.6593,0.6592,0.6592,0,0.7065,0.71,0.6982,0.6999,0.7033,0.6941,0.6978,0.6935,0.6891,0.6898,0.6806,0.6814,0.6715,0.6713,0.6655,0.6681,0.6677,0.6648,0.6633,0.6657,0.6661,0.6653,0.6643,0.6597,0.6596,0.6595,0.6594,0,0.7269,0.7191,0.7212,0.7132,0.7112,0.7142,0.7073,0.7085,0.703,0.7039,0.7036,0.6952,0.6944,0.6867,0.6844,0.6805,0.6853,0.682,0.6867,0.6857,0.6919,0.6915,0.7135,0.7159,0.6928,0.693,0.6932,0,0.7379,0.7402,0.7323,0.7319,0.7289,0.7285,0.7272,0.7182,0.7174,0.7122,0.714,0.7123,0.7106,0.7097,0.7035,0.7015,0.6982,0.706,0.6979,0.7001,0.6983,0.6983,0.6984,0.7078,0.7081,0.7084,0.7086,0,0.7582,0.7542,0.7527,0.7498,0.7485,0.7459,0.7427,0.7429,0.7329,0.7324,0.7313,0.7299,0.7271,0.7256,0.7225,0.7192,0.7123,0.7111,0.7124,0.7149,0.7175,0.7161,0.6915,0.7107,0.7105,0.7104,0.7102,0.7102,0.7742,0.7757,0.7702,0.7688,0.7653,0.7625,0.7631,0.7575,0.7564,0.7533,0.748,0.7476,0.7428,0.7378,0.7351,0.7347,0.7306,0.7324,0.7329,0.7335,0.7348,0.7175,0.7341,0.734,0.7339,0.7339,0.7338,0,0.794,0.7899,0.7886,0.7842,0.7831,0.7763,0.7723,0.7719,0.7716,0.7675,0.7658,0.7644,0.7628,0.7563,0.7539,0.7549,0.7516,0.7546,0.7545,0.7538,0.7386,0.7377,0.7572,0.7572,0.7572,0.7572,0.7572,0.7572,0.8042,0.8063,0.8015,0.8018,0.7976,0.7969,0.7952,0.7925,0.7892,0.788,0.7865,0.7821,0.777,0.7742,0.7724,0.7705,0.7701,0.7741,0.7712,0.7572,0.7549,0.7528,0.7519,0.7741,0.7741,0.7864,0.7866,0.7867]},{"header":{"parameterUnit":"m.s-1","parameterCategory":1,"la1":30.2991,"la2":30.254,"lo1":-89.0895,"lo2":-89.0444,"dy":0.0017,"dx":0.0017,"nx":28,"ny":28,"refTime":"2023-07-27T03:00:00:Z","depth":0,"parameterNumber":3,"parameterNumberName":"V-component_of_WINDS"},"data":[0,0,0,0,0,0,0,0,0,0,0,0,0,0,0,0,0,0,0,0,0,0,0,0,0,0,0,0,0,0,0,0,0,0,0,0,0,0,0,0,0,0,0,0,0,0,0,0,0,0,0,0,0,0,0,0,0,0,0.3081,0.3081,0,0.315,0.3151,0.3152,0.3156,0.3155,0.3154,0.3153,0.3222,0.3225,0.3227,0,0,0,0,0,0,0,0,0,0,0,0,0,0.2949,0.2951,0.308,0.3081,0.3082,0.315,0.3151,0.3152,0.3156,0.3155,0.3154,0.3153,0.3221,0.3224,0.3227,0,0,0,0,0,0,0,0,0,0,0,0,0,0.3011,0.2952,0.308,0.3092,0.3094,0.315,0.3151,0.3152,0.3156,0.3155,0.3154,0.3153,0.322,0.3224,0.3228,0.3275,0,0,0.324,0.3241,0,0,0,0,0,0,0,0,0.3007,0.3016,0.309,0.3092,0.3094,0.3143,0.313,0.3193,0.3156,0.3132,0.3153,0.3152,0.3197,0.3202,0.3218,0.3279,0.3282,0.324,0.3242,0.3244,0.3245,0,0,0,0,0,0,0,0.3003,0.3013,0.3108,0.3091,0.3093,0.3094,0.3101,0.3142,0.317,0.3134,0.3135,0.3143,0.3198,0.3214,0.322,0.3283,0.324,0.3243,0.3246,0.3247,0.3385,0.3387,0,0,0,0,0,0,0.2997,0.3009,0.3106,0.311,0.3047,0.3097,0.3105,0.3128,0.317,0.3175,0.3144,0.3143,0.3208,0.3215,0.3222,0.328,0.3244,0.3248,0.325,0.3384,0.3386,0.3387,0,0,0,0,0,0,0.2994,0.3005,0.3103,0.306,0.3072,0.3101,0.3126,0.313,0.3147,0.3177,0.3182,0.3156,0.3208,0.3217,0.3262,0.3283,0.3249,0.3253,0.3382,0.3384,0.3386,0.3397,0,0,0,0,0,0,0.299,0.3004,0.3023,0.306,0.3075,0.3143,0.3128,0.3133,0.3154,0.3153,0.319,0.3195,0.3207,0.3256,0.3266,0.3287,0.3256,0.3381,0.3383,0.3386,0.3395,0.3399,0.3402,0,0,0,0,0,0.2986,0.3023,0.3024,0.3036,0.3099,0.3144,0.3152,0.3166,0.3156,0.3174,0.3194,0.3193,0.3279,0.3261,0.3272,0.3295,0.3379,0.3383,0.3385,0.3393,0.3398,0.3402,0,0,0,0,0,0,0.2986,0.3028,0.303,0.308,0.3109,0.3144,0.3168,0.3171,0.3203,0.3201,0.3217,0.3225,0.327,0.3287,0.3266,0.3343,0.3328,0.3333,0.333,0.3335,0.3339,0.3333,0.3259,0,0,0,0,0,0.2993,0.3027,0.3061,0.3102,0.3116,0.314,0.316,0.3169,0.3198,0.321,0.3233,0.3261,0.3294,0.3315,0.3348,0.3397,0.3405,0.3418,0.3422,0.3425,0.3429,0.3457,0.3463,0.3397,0.3397,0.3397,0,0,0.3006,0.3033,0.3053,0.3103,0.3126,0.316,0.315,0.3186,0.3211,0.3215,0.326,0.3278,0.331,0.3358,0.338,0.3373,0.3449,0.3429,0.3431,0.3434,0.346,0.3467,0.3472,0.3399,0.3399,0.3398,0,0,0.3047,0.3071,0.3108,0.3131,0.3166,0.3182,0.3191,0.3226,0.3238,0.3284,0.3287,0.3317,0.3374,0.3397,0.3416,0.3466,0.3467,0.3476,0.3496,0.3522,0.3527,0.3532,0.3549,0.3556,0.348,0.348,0.348,0,0.3058,0.311,0.3126,0.3163,0.3184,0.3191,0.3228,0.3249,0.3293,0.3307,0.33,0.3371,0.3393,0.3447,0.3459,0.3474,0.3484,0.3472,0.3526,0.353,0.3535,0.3552,0.3558,0.3481,0.3481,0.3481,0.3481,0,0.3122,0.3158,0.3184,0.3226,0.3251,0.3288,0.3308,0.3331,0.3338,0.3354,0.34,0.3427,0.3465,0.3478,0.3485,0.3532,0.3527,0.3522,0.3508,0.3542,0.3558,0.3564,0.3482,0.3482,0.3482,0.3482,0,0,0.3165,0.3216,0.3225,0.3245,0.3284,0.3312,0.3349,0.3387,0.3406,0.3436,0.3466,0.3515,0.3511,0.3532,0.3542,0.3565,0.3602,0.3557,0.3558,0.3564,0.3656,0.3658,0.3666,0.3603,0.3605,0.3606,0.3653,0,0.3209,0.3276,0.3291,0.3348,0.3381,0.3388,0.342,0.3447,0.3463,0.3493,0.3511,0.3545,0.3537,0.355,0.3574,0.3593,0.3621,0.359,0.3631,0.3632,0.3622,0.3674,0.3677,0.372,0.3659,0.366,0.3661,0,0.327,0.3303,0.3363,0.3398,0.3412,0.3441,0.3477,0.3506,0.3537,0.3547,0.3571,0.3578,0.3616,0.36,0.3652,0.3631,0.3649,0.3661,0.3663,0.3667,0.3648,0.3679,0.3735,0.3741,0.3671,0.367,0.367,0,0.3295,0.3353,0.3397,0.3413,0.3456,0.3475,0.3494,0.3524,0.3545,0.3577,0.3591,0.3626,0.3644,0.3671,0.3687,0.3674,0.3738,0.3723,0.3746,0.3746,0.3759,0.3758,0.3818,0.3772,0.3772,0.3771,0.3771,0,0.3343,0.3379,0.3408,0.3435,0.3476,0.3493,0.3533,0.3551,0.3578,0.3608,0.3615,0.3643,0.3663,0.3693,0.3706,0.3747,0.3755,0.3764,0.3767,0.3763,0.3762,0.3775,0.3772,0.3773,0.3773,0.3772,0.3772,0,0.3376,0.3398,0.3445,0.3482,0.3492,0.352,0.3551,0.3577,0.3594,0.3631,0.3641,0.3667,0.3703,0.3722,0.3767,0.3776,0.3821,0.3823,0.3811,0.3812,0.3834,0.3832,0.3904,0.3914,0.3862,0.3862,0.3863,0,0.3405,0.3434,0.3474,0.3495,0.3514,0.3547,0.357,0.3588,0.3611,0.3649,0.367,0.3706,0.3737,0.3794,0.3816,0.385,0.3852,0.3875,0.3857,0.3853,0.3852,0.385,0.3852,0.3878,0.3879,0.3879,0.3879,0,0.3454,0.3463,0.3496,0.3532,0.3559,0.3588,0.3617,0.3634,0.3656,0.3682,0.3719,0.3743,0.3789,0.3825,0.3861,0.3879,0.3883,0.3885,0.3892,0.3888,0.388,0.3884,0.3819,0.3883,0.3883,0.3882,0.3882,0.3882,0.3486,0.3511,0.3543,0.3579,0.3603,0.363,0.3656,0.3677,0.3708,0.3748,0.3757,0.3796,0.3826,0.3875,0.3895,0.3925,0.3921,0.3931,0.3933,0.3936,0.3936,0.3876,0.3932,0.3932,0.3932,0.3932,0.3932,0,0.3534,0.3556,0.3589,0.3629,0.3657,0.366,0.3692,0.3715,0.375,0.3778,0.3808,0.3851,0.3886,0.3912,0.3947,0.3967,0.3969,0.3975,0.3974,0.3978,0.3939,0.3929,0.3973,0.3973,0.3973,0.3973,0.3973,0.3973,0.3563,0.3606,0.3619,0.3674,0.3694,0.3734,0.3752,0.3776,0.3799,0.3847,0.3877,0.3894,0.3921,0.3958,0.3991,0.3997,0.401,0.4016,0.4022,0.3985,0.3981,0.3976,0.3967,0.4018,0.4018,0.4058,0.4059,0.4059]}]]